Погода в Ватикане

Ватикан     41°54′07″N   12°27′20″E
темп.,
°C
ветер,
м/с
пор.,
м/с
влажн.,
%
обл.,
%
осадки,
мм/ч
давл.,
гПа
погр.,
м
10 августа, ср
ср1023:00+23ссв3360100 0.0 1016155
02:00+20ссв3466100 0.0 1016120
05:00+19с35705 0.0 1015120
08:00+22ссв34635 0.0 1016230
11:00+31св11345 0.0 1015924
14:00+35юз43244 0.0 10142634
17:00+33юз643125 0.0 10132013
20:00+24вюв46695 1.4 1015277
11 августа, чт
чт1123:00+22св237790 0.1 101580
02:00+20ссв2383100 0.4 101579
05:00+20ссв238199 0.0 101577
08:00+22ссв2370100 0.0 1015178
11:00+29св2244100 0.0 1014801
14:00+34ююв323031 0.0 10132417
17:00+32зюз423645 0.1 10122080
20:00+27зюз015381 0.8 101271
12 августа, пт
пт1223:00+22в247858 0.9 1013124
02:00+20ссв22821 2.0 101363
05:00+19ссв34795 0.0 101394
08:00+20ссв345897 0.0 1013176
11:00+29всв11300 0.0 1013804
14:00+33ююв23245 0.0 10112799
17:00+32зюз65326 0.0 10111986
20:00+27зюз45452 0.0 1012480
13 августа, сб
сб1323:00+23з12610 0.0 1013132
02:00+21с226339 0.0 101343
05:00+22с1161100 0.0 101265
08:00+22з116357 0.8 1014185
11:00+25всв224891 0.1 1013537
14:00+32ю243178 0.1 10122491
17:00+30зюз653622 0.1 10121871
20:00+27з464740 0.1 1011542
14 августа, вс
вс1423:00+21ссв34660 0.0 1013123
02:00+19с36680 0.0 1012174
05:00+17с37660 0.0 1012197
08:00+20с46580 0.0 1012254
11:00+29ссв36290 0.0 10111295
14:00+34ссв36210 0.0 10102899
17:00+33зюз572553 0.0 10091893
20:00+28ююв35399 0.0 1009299